AirNav   Air Wisconsin pilot careers
 
 1529 users online  

KNRS Imperial Beach Naval Outlying Field (Ream Field)
Imperial Beach, California, USA

GOING TO IMPERIAL BEACH?


FAA INFORMATION EFFECTIVE 11 OCTOBER 2018

Location

FAA Identifier: NRS
Lat/Long: 32-33-58.1638N / 117-06-48.6837W
32-33.969397N / 117-06.811395W
32.5661566 / -117.1135233
(estimated)
Elevation: 23.6 ft. / 7.2 m (surveyed)
Variation: 11E (2020)
From city: 1 mile S of IMPERIAL BEACH, CA
Time zone: UTC -7 (UTC -8 during Standard Time)
Zip code: 91932

Airport Operations

Airport use: Private use. Permission required prior to landing
Activation date: 02/1944
Control tower: yes
ARTCC: LOS ANGELES CENTER
FSS: SAN DIEGO FLIGHT SERVICE STATION
FSS-SAN DIEGO SAN-NOTAM NRS
NOTAMs facility: SAN (NOTAM-D service available)
Attendance: 
OPR 1600-0630Z MON-THU (1500-0600Z DT) AND 1600-0200Z++ FRI. CLSD FR 0200Z++ DAY PRIOR TIL 1600Z++ DAY FLW GOVT HOL; EXC PRE-COORD FLT OF OPR NECESSITY. CTC NOLF ATC DSN 577-9414/9415 FOR OPR INQUIRIES.
Segmented circle: no
Lights: AVBL ONLY DURING HRS OF OPERATION.
Beacon: white-white-green (lighted military airport)
Operates sunset to sunrise.

Airport Communications

ATIS: 276.2
WX ASOS: PHONE 619-437-9890
IMPERIAL BEACH GROUND: 285.575 [1600-0630Z MON-THU (1500-0600Z DT) AND 1600-0200Z++ FRI. CLSD FR 0200Z++ DAY PRIOR TIL 1600Z++ DAY FLW GOVT HOL.]
IMPERIAL BEACH TOWER: 120.65 239.25 [1600-0630Z MON-THU (1500-0600Z DT) AND 1600-0200Z++ FRI. CLSD FR 0200Z++ DAY PRIOR TIL 1600Z++ DAY FLW GOVT HOL.]
SOCAL APPROACH: 125.15
SOCAL DEPARTURE: 125.15
EMERG: 243.0
RADAR: 318.8
WX ASOS at SDM (7 nm E): 132.35 (619-661-8297)
WX ASOS at SAN (11 nm N): PHONE 619-296-8934
WX ASOS at MYF (15 nm N): 126.9 (858-576-4337)
WX AWOS-3P at SEE (17 nm NE): 125.45 (619-449-1228)
  • ATCT/GCA/ATIS OPR PUBLISHED HRS EXC PRE-COORD FLT OF OPR NECESSITY.
  • FOR CLNC DEL WHEN ATCT CLSD CALL SOCAL APCH (800) 448-3724.
  • ILS/RADAR - RADAR - SEE TERMINAL FLIP FOR RADAR MINIMA.

Nearby radio navigation aids

VOR radial/distance  VOR name  Freq  Var
PGYr235/7.3POGGI VORTAC109.8014E
TIJr267/8.2TIJUANA VOR/DME116.5014E
MZBr141/14.1MISSION BAY VORTAC117.8015E

Airport Services

Runway Information

Runway 8/26

Dimensions: 2240 x 151 ft. / 683 x 46 m
Surface: concrete
Weight bearing capacity: 
PCN 6 /R/C/W/T
RUNWAY 8  RUNWAY 26
Latitude: 32-34.018072N32-33.921433N
Longitude: 117-06.827898W117-06.406738W
Elevation: 23.5 ft.21.2 ft.
Traffic pattern: leftleft
Touchdown point: yes, no lightsyes, no lights

Runway 9/27

Dimensions: 4997 x 336 ft. / 1523 x 102 m
Surface: PEM
Weight bearing capacity: 
PCN 8 /F/A/W/T
Runway edge lights: high intensity
RUNWAY 9  RUNWAY 27
Latitude: 32-34.076683N32-33.861790N
Longitude: 117-07.368155W117-06.428677W
Elevation: 8.2 ft.19.8 ft.
Traffic pattern: leftleft
Touchdown point: yes, no lightsyes, no lights

Airport Ownership and Management from official FAA records

Ownership: U.S. Navy
Owner: US NAVY
OCEANOGRAPHIC OFC - CODE 3142
WASHINGTON, DC 20373

Additional Remarks

RSTD - OFFL BUS ONLY - PPR F/W AND NON-TENANT ACFT, CTC NASNI ODO DSN 735-8233/8234, C619-545-8233/8234. NORTH ISLAND TENANT ACFT AND COAST GUARD HAVE PRIORITY FOR LCL PAT OPR.
CAUTION: EXTV COPTER TRNG.
MISC: RWY 08-26 AVBL FOR DAY AND NGT COPTER USE ONLY (NGT AND SVFR USE AT PILOTS OWN RISK).
FUEL: J5 (AVAILABLE 1100-2100 MON-THU; 1000-1800 FRI).

Instrument Procedures

NOTE: All procedures below are presented as PDF files. If you need a reader for these files, you should download the free Adobe Reader.

NOT FOR NAVIGATION. Please procure official charts for flight.
FAA instrument procedures published for use from 11 October 2018 at 0901Z to 8 November 2018 at 0900Z.

 
IAPs - Instrument Approach Procedures
COPTER TACAN RWY 27   download (96KB)
NOTE: Special Take-Off Minimums/Departure Procedures apply   download (174KB)

Other nearby airports with instrument procedures:

KSDM - Brown Field Municipal Airport (7 nm E)
KNZY - North Island Naval Air Station (Halsey Field) (9 nm NW)
KSAN - San Diego International Airport (11 nm N)
KMYF - Montgomery-Gibbs Executive Airport (15 nm N)
KSEE - Gillespie Field Airport (17 nm NE)
KNKX - Miramar MCAS (Joe Foss Field) Airport (18 nm N)
 
Loc | Ops | Rwys | IFR | FBO | Links
Com | Nav | Svcs | Stats | Notes


 
Area around KNRS (Imperial Beach Naval Outlying Field (Ream Field))
 
Road maps at: MapQuest Bing Google
 
Aerial photo
WARNING: Photo may not be current or correct
Aerial photo of KNRS (Imperial Beach Naval Outlying Field (Ream Field))
Taken in November 2008

Do you have a better or more recent aerial photo of Imperial Beach Naval Outlying Field (Ream Field) that you would like to share? If so, please send us your photo.

 
Sectional chart

 
Airport distance calculator
Flying to Imperial Beach Naval Outlying Field (Ream Field)? Find the distance to fly.

From to KNRS

Sunrise and sunset
Times for 15-Oct-2018
 Local
(UTC-7)
 Zulu
(UTC)
Morning civil twilight06:2913:29
Sunrise06:5313:53
Sunset18:1501:15
Evening civil twilight18:4001:40

Current date and time
Zulu (UTC)  15-Oct-2018 20:11:10
Local (UTC-7)  15-Oct-2018 13:11:10
 
METAR
KNRS 151956Z 30012KT 10SM FEW110 24/06 A2999 RMK SLP155 T02390061
KSDM 
6nm E 
151953Z 32005KT SCT100 26/08 A2999 RMK AO2 SLP150 T02560083
MMTJ 
8nm E 
151948Z 00000KT 7SM SCT055 26/M06 A3002 RMK 8/500 HZY
KNZY 
10nm NW 
151952Z 28009KT 10SM SCT110 24/01 A2999 RMK AO2 SLP154 T02440006 PNO $
KSAN 
11nm N 
151951Z 27009KT 10SM FEW075 SCT110 26/M02 A3000 RMK AO2 SLP159 T02561022
KMYF 
15nm N 
151953Z 21007KT 10SM CLR 26/M01 A2999 RMK AO2 SLP149 T02611006
KSEE 
17nm NE 
151947Z 04010G14KT 10SM SKC 27/M13 A2999
KNKX 
18nm N 
151955Z 03005KT 10SM FEW100 29/M11 A2999 RMK AO2 SLP147 ACC DSNT S T02941111
TAF
MMTJ 
8nm E 
151709Z 1518/1624 06015KT P6SM SKC TX27/1520Z TN14/1612Z BECMG 1602/1603 00000KT FM161500 10010KT P6SM SKC
KNZY 
10nm NW 
1515/1615 VRB05KT 9999 FEW030 SCT090 530009 530905 531809 532709 533602 QNH2997INS FM151900 31011KT 9999 FEW030 FEW100 530009 530905 531809 532709 533602 QNH2993INS TEMPO 1521/1602 33014G24KT FM160300 VRB06KT 9999 SKC 531809 532709 533602 QNH2995INS T26/1521Z T15/1612Z FS30022
KSAN 
11nm N 
151741Z 1518/1624 02005KT P6SM SCT060 FM152000 33011KT P6SM SKC FM160200 VRB03KT P6SM SKC FM161900 32009KT P6SM SKC
KNKX 
18nm N 
1515/1615 VRB06KT 9999 FEW070 QNH3000INS BECMG 1517/1519 03010KT 9999 SKC QNH2995INS TEMPO 1519/1601 35015G25KT FM160930 VRB06KT 9999 SKC QNH2999INS T27/1521Z T14/1613Z
NOTAMs
Click for the latest NOTAMs
NOTAMs are issued by the DoD/FAA and will open in a separate window not controlled by AirNav.

 

 
 

Would you like to see your business listed on this page?

 If your business provides an interesting product or service to pilots, flight crews, aircraft, or users of the Imperial Beach Naval Outlying Field (Ream Field), you should consider listing it here.  To start the listing process, click on the button below
 
Add a business
 

Other Pages about Imperial Beach Naval Outlying Field (Ream Field)

Update a link
 
Copyright © AirNav, LLC. All rights reserved. Privacy Policy  Contact